Regional Weather Roundup
Issued by NWS

Home | Current Version | Previous Version | Text Only | Print | Product List | Glossary On
Versions: 1 2 3 4 5 6 7 8 9 10 11 12 13 14 15 16 17 18 19 20 21 22 23 24 25 26 27 28 29 30 31 32 33 34 35 36 37 38 39 40 41 42 43 44 45 46 47 48 49 50
000
ASUS43 KTOP 242359
RWRKS

WEATHER ROUNDUP FOR KANSAS
NATIONAL WEATHER SERVICE GOODLAND KS
700 PM CDT FRI OCT 24 2014

NOTE:  "FAIR" INDICATES FEW OR NO CLOUDS BELOW 12,000 FEET WITH NO
SIGNIFICANT WEATHER AND/OR OBSTRUCTIONS TO VISIBILITY.

KSZ001>006-013>018-027>032-041>047-250100-
NORTHWEST KANSAS

CITY           SKY/WX    TMP DP  RH WIND       PRES   REMARKS
GOODLAND       CLEAR     74  34  23 CALM      30.07S
6HR MIN TEMP:  74; 6HR MAX TEMP:  89;

HAYS           CLEAR     75  54  46 SE3       29.99R
HILL CITY      CLEAR     75  40  28 E3        30.00R
6HR MIN TEMP:  75; 6HR MAX TEMP:  89;

RUSSELL        CLEAR     74  55  51 S6        29.97R
6HR MIN TEMP:  74; 6HR MAX TEMP:  86;

$$

KSZ061>065-074>080-084>089-250100-
SOUTHWEST KANSAS

CITY           SKY/WX    TMP DP  RH WIND       PRES   REMARKS
DODGE CITY     CLEAR     74  48  39 S9        30.03R
6HR MIN TEMP:  74; 6HR MAX TEMP:  86;

ELKHART          N/A     80  40  24 S5          N/A
GARDEN CITY    CLEAR     78  44  29 CALM      30.03R
6HR MIN TEMP:  78; 6HR MAX TEMP:  86;

GREAT BEND     CLEAR     73  55  53 SE5       29.99R
LIBERAL        CLEAR     79  41  25 S8        30.05S
$$

KSZ066>073-081>083-090>101-250100-
SOUTHEAST KANSAS

CITY           SKY/WX    TMP DP  RH WIND       PRES   REMARKS
CHANUTE        PTCLDY    68  62  81 S9        30.00F
6HR MIN TEMP:  68; 6HR MAX TEMP:  75;

COFFEYVILLE    PTCLDY    69  61  75 S7        30.01S
6HR MIN TEMP:  69; 6HR MAX TEMP:  75;

HUTCHINSON     CLEAR     73  60  63 S8        29.98S
6HR MIN TEMP:  73; 6HR MAX TEMP:  85;

NEWTON         CLEAR     73  57  56 SW8       30.01S
PARSONS        PTCLDY    70  62  76 S5        30.02F
6HR MIN TEMP:  70; 6HR MAX TEMP:  76;

WICHITA INTL   PTCLDY    74  60  61 SW7       29.99S
6HR MIN TEMP:  74; 6HR MAX TEMP:  84;

WICHITA JABRA  CLEAR     73  61  65 S8        29.99S
6HR MIN TEMP:  73; 6HR MAX TEMP:  82;

WICHITA MCCONL CLEAR     73  62  68 S7        30.00S
WINFIELD       CLEAR     71  63  75 SW6       30.01S
6HR MIN TEMP:  71; 6HR MAX TEMP:  81;

$$

KSZ007>012-019>026-033>040-048>060-102>105-250100-
NORTHEAST KANSAS

CITY           SKY/WX    TMP DP  RH WIND       PRES   REMARKS
CONCORDIA      CLEAR     71  53  52 W5        29.95R
6HR MIN TEMP:  71; 6HR MAX TEMP:  83;

EMPORIA        CLEAR     71  61  70 S12       29.97R
6HR MIN TEMP:  69; 6HR MAX TEMP:  81;

LAWRENCE       MOCLDY    70  61  73 S7        29.94S
6HR MIN TEMP:  70; 6HR MAX TEMP:  76;

MANHATTAN      CLEAR     72  63  73 SW7       29.93R
6HR MIN TEMP:  72; 6HR MAX TEMP:  82;

OLATHE IND     MOCLDY    69  62  78 S12       29.96S
6HR MIN TEMP:  69; 6HR MAX TEMP:  76;

OLATHE EXE     MOCLDY    71  62  73 SW12      29.95S
6HR MIN TEMP:  71; 6HR MAX TEMP:  76;

SALINA         CLEAR     76  62  62 S10       29.95S
6HR MIN TEMP:  73; 6HR MAX TEMP:  85;

TOPEKA BILLARD CLEAR     74  63  68 S3        29.93S
6HR MIN TEMP:  72; 6HR MAX TEMP:  80;

TOPEKA FORBES  CLEAR     71  62  73 S8        29.93S
6HR MIN TEMP:  71; 6HR MAX TEMP:  79;

$$



USA.gov is the U.S. government's official web portal to all federal, state and local government web resources and services.